Weather History for Santiago, Dominican Republic

Change the Weather History Date:

Friday, December 27, 2013

  Actual Average Record
Temperature  
Mean Temperature 76 °F -  
Max Temperature 86 °F 84 °F 89 °F (1997)
Min Temperature 65 °F 65 °F 57 °F (2001)
Cooling Degree Days 10    
Growing Degree Days 26 (Base 50)    
Moisture  
Dew Point 70 °F    
Average Humidity 83    
Maximum Humidity 100    
Minimum Humidity 49    
Precipitation  
Precipitation 0.00 in 0.07 in - ()
Sea Level Pressure  
Sea Level Pressure 30.06 in    
Wind  
Wind Speed 7 mph ()    
Max Wind Speed 14 mph    
Max Gust Speed -    
Visibility 5.9 miles    
Events Rain    
Averages and records for this station are not official NWS values.
T = Trace of Precipitation, MM = Missing Value Source: Averaged Metar Reports

Daily Weather History Graph

Daily Weather History Graph

Search for Another Location

Airport:

Trip Planner

Search our weather history database for the weather conditions in past years. The results will help you decide how hot, cold, wet, or windy it might be!

Date:

Astronomy

Dec. 27, 2013 Rise Set
Actual Time 7:14 AM AST 6:12 PM AST
Civil Twilight 6:50 AM AST 6:36 PM AST
Nautical Twilight 6:23 AM AST 7:04 PM AST
Astronomical Twilight 5:56 AM AST 7:31 PM AST
Moon 2:09 AM AST (12/27) 1:58 PM AST (12/27)
Length of Visible Light 11h 46m
Length of Day
10h 58m
Waning Crescent, 29% of the Moon is Illuminated
Dec 27
Waning Crescent
Jan 1
New
Jan 7
First Quarter
Jan 16
Full
Jan 24
Last Quarter

Hourly Weather History & Observations

Time (AST) Temp. Heat Index Dew Point Humidity Pressure Visibility Wind Dir Wind Speed Gust Speed Precip Events Conditions
12:00 AM 73.4 °F - 71.6 °F 94% 30.06 in 6.2 mi ESE 11.5 mph - N/A   Scattered Clouds
1:00 AM 71.6 °F - 69.8 °F 94% 30.06 in 6.2 mi ESE 6.9 mph - N/A   Scattered Clouds
2:00 AM 69.8 °F - 68.0 °F 94% 30.04 in 6.2 mi ESE 6.9 mph - N/A   Partly Cloudy
3:00 AM 69.8 °F - 68.0 °F 94% 30.04 in 6.2 mi ESE 5.8 mph - N/A   Partly Cloudy
4:00 AM 69.8 °F - 68.0 °F 94% 30.01 in 6.2 mi South 3.5 mph - N/A   Partly Cloudy
5:00 AM 68.0 °F - 68.0 °F 100% 30.04 in 6.2 mi SSW 4.6 mph - N/A   Partly Cloudy
6:00 AM 68.0 °F - 68.0 °F 100% 30.04 in 6.2 mi South 4.6 mph - N/A   Partly Cloudy
7:00 AM 68.0 °F - 68.0 °F 100% 30.04 in 6.2 mi SSW 4.6 mph - N/A   Partly Cloudy
8:00 AM 68 °F - 66 °F 90% 30.12 in 3 mi Calm Calm - -   Mist
8:00 AM 68.0 °F - 66.2 °F 94% 30.12 in 3.1 mi Calm Calm - N/A   Partly Cloudy
9:00 AM 71.6 °F - 69.8 °F 94% 30.12 in 6.2 mi ENE 3.5 mph - N/A   Partly Cloudy
10:00 AM 75.2 °F - 69.8 °F 83% 30.12 in 6.2 mi SSE 6.9 mph - N/A   Partly Cloudy
11:00 AM 79 °F - 71 °F 69% 30.11 in 7 mi SSE 11.2 mph - -   Haze
12:00 PM 80.6 °F 84.6 °F 71.6 °F 74% 30.09 in 6.2 mi SE 13.8 mph - N/A   Partly Cloudy
1:00 PM 80.6 °F 84.6 °F 71.6 °F 74% 30.04 in 6.2 mi ESE 13.8 mph - N/A   Partly Cloudy
2:00 PM 85 °F - 74 °F 61% 30.04 in 7 mi SE 11.2 mph - -   Haze
2:00 PM 84.2 °F 90.9 °F 73.4 °F 70% 30.04 in 6.2 mi SE 11.5 mph - N/A   Partly Cloudy
3:00 PM 84.2 °F 90.9 °F 73.4 °F 70% 30.04 in 6.2 mi SE 11.5 mph - N/A   Partly Cloudy
4:00 PM 86.0 °F 107.7 °F 84.2 °F 94% 29.98 in 6.2 mi ESE 11.5 mph - N/A   Partly Cloudy
5:00 PM 84 °F - 68 °F 49% 30.00 in 7 mi SE 8.9 mph - -   Haze
5:00 PM 84.2 °F 87.3 °F 68.0 °F 58% 29.98 in 6.2 mi SE 9.2 mph - N/A   Partly Cloudy
6:00 PM 82.4 °F 86.3 °F 69.8 °F 66% 30.01 in 6.2 mi ESE 9.2 mph - N/A   Scattered Clouds
7:00 PM 77.0 °F - 69.8 °F 78% 30.04 in 6.2 mi ESE 11.5 mph - N/A   Partly Cloudy
8:00 PM 77.0 °F - 69.8 °F 78% 30.06 in 6.2 mi SE 6.9 mph - N/A   Scattered Clouds
9:00 PM 77.0 °F - 71.6 °F 83% 30.12 in 6.2 mi SE 13.8 mph - N/A   Scattered Clouds
9:10 PM 73.4 °F - 68.0 °F 83% 30.12 in 3.7 mi South 13.8 mph - N/A Rain Heavy Rain Showers
10:00 PM 71.6 °F - 69.8 °F 94% 30.12 in 5.0 mi ESE 4.6 mph - N/A Rain Light Rain
11:00 PM 71.6 °F - 69.8 °F 94% 30.12 in 6.2 mi ESE 4.6 mph - N/A   Scattered Clouds